Regional Weather Roundup
Issued by NWS Little Rock, AR

Home | Current Version | Previous Version | Text Only | Print | Product List | Glossary On
Versions: 1 2 3 4 5 6 7 8 9 10 11 12 13 14 15 16 17 18 19 20 21 22 23 24 25 26 27 28 29 30 31 32 33 34 35 36 37 38 39 40 41 42 43 44 45 46 47 48 49 50
000
ASUS44 KLZK 210305
RWRLZK

WEATHER ROUNDUP FOR ARKANSAS
NATIONAL WEATHER SERVICE LITTLE ROCK AR
1000 PM CDT MON APR 20 2015

NOTE: "FAIR" INDICATES FEW OR NO CLOUDS BELOW 12,000 FEET WITH NO
SIGNIFICANT WEATHER AND/OR OBSTRUCTIONS TO VISIBILITY.

ARZ001-003-010-029-210400-
NORTHWEST ARKANSAS

CITY           SKY/WX    TMP DP  RH WIND       PRES   REMARKS
FAYETTEVILLE   CLEAR     43  39  86 S3        29.98R
FORT SMITH     CLEAR     53  42  66 SW3       29.98R
HARRISON       CLEAR     47  32  56 SW3       29.96R
BENTONVILLE    CLEAR     46  36  66 SW3       29.97R
ROGERS         CLEAR     50  33  52 SW5       29.97R
SILOAM SPGS    CLEAR     46  30  53 S5        29.98R
HIGHFILL       CLEAR     46  34  62 SW6       29.96R
$$

ARZ004-005-016-210400-
NORTH CENTRAL ARKANSAS

CITY           SKY/WX    TMP DP  RH WIND       PRES   REMARKS
BATESVILLE     CLEAR     52  34  50 W5        29.97R
FLIPPIN        CLEAR     50 N/A N/A CALM      29.94R
MTN HOME       CLEAR     50  31  48 SW3       29.95R
$$

ARZ040-041-210400-
WEST CENTRAL ARKANSAS

CITY           SKY/WX    TMP DP  RH WIND       PRES   REMARKS
MENA           CLEAR     46  41  81 CALM      30.00R
MOUNT IDA      CLEAR     50  38  63 CALM      29.97R
$$

ARZ009-017-025-026-028-210400-
NORTHEAST ARKANSAS

CITY           SKY/WX    TMP DP  RH WIND       PRES   REMARKS
CORNING          N/A     54  37  54 W8        29.94R
JONESBORO      CLEAR     56  35  45 NW9       29.93R
NEWPORT        CLEAR     56  36  47 NW10      29.97R
WALNUT RIDGE   CLEAR     55  32  41 W9        29.94R
BLYTHEVILLE    CLEAR     55  41  59 NW13      29.91R
$$

ARZ022-023-033-042-044-210400-
CENTRAL ARKANSAS

CITY           SKY/WX    TMP DP  RH WIND       PRES   REMARKS
LITTLE ROCK    CLEAR     58  32  37 W6        29.97R
N LITTLE ROCK  CLEAR     56  37  48 W5        29.97R
JACKSONVILLE   CLEAR     55  38  54 W6        29.97R
SEARCY         CLEAR     53  40  61 NW3       29.99R
HOT SPRINGS    CLEAR     54  37  52 CALM      29.99R
RUSSELLVILLE   CLEAR     49  42  77 CALM      29.98R
CLINTON        FAIR      46  41  81 CALM      30.00R
$$

ARZ036-210400-
EAST ARKANSAS

CITY           SKY/WX    TMP DP  RH WIND       PRES   REMARKS
WEST MEMPHIS   CLEAR     55  47  74 CALM      29.93R
$$

ARZ050-053-066-070-073-210400-
SOUTHWEST ARKANSAS

CITY           SKY/WX    TMP DP  RH WIND       PRES   REMARKS
ARKADELPHIA    FAIR      58  40  51 NW7       29.99R
CAMDEN         CLEAR     50  45  81 CALM      29.99R
TEXARKANA      CLEAR     55  45  68 NW3       29.99R
EL DORADO      PTCLDY    53  47  79 CALM      29.99R
DE QUEEN       CLEAR     51  44  77 CALM      29.98R
$$

ARZ056-057-069-210400-
SOUTHEAST ARKANSAS

CITY           SKY/WX    TMP DP  RH WIND       PRES   REMARKS
PINE BLUFF     CLEAR     58  40  51 NW5       29.97R
STUTTGART      CLEAR     57  39  51 W10       29.97R
MONTICELLO     CLEAR     52  45  77 CALM      29.97R

$$




USA.gov is the U.S. government's official web portal to all federal, state and local government web resources and services.